"Pseudo-MPEC" for P10OLCD

Created 2019 Jun 14 7:08:14 UT using Find_Orb

Click here for an explanation of pseudo-MPECs

 
 Astrometry: 
     P10OLCD  C2019 06 07j*_WuAstrometry3ok:=%epyYredacted;q`;Fi:F?pff5PBO@L4F51
     P10OLCD  C2019 06 07wGFG;cMZ:+fUclick+/JQN@ro-EhereB6@IJ=%rLg'Sna4bFqQdAF51
     P10OLCD  C2019 06 07]l;Uaa8R'aDfNbmDFd_ZL,5w7S?tEZfor)-explanationPyniQuF51

Station data:
(F51) Pan-STARRS 1, Haleakala  (N20.707235 W156.255910)  US/Hawaii.
   Observers N. Primak, A. Schultz, S. Watters, J. Thiel, T. Goggia. Measurer
   PS1 Science Consortium. 1.8-m Ritchey-Chrétien + CCD.

Orbital elements:  P10OLCD
   Perihelion 2019 Oct 27.050989 +/- 105 TT =  1:13:25 (JD 2458783.550989)
Epoch 2019 Jun  7.0 TT = JDT 2458641.5   Earth MOID: 0.3968   Ma: 0.0159
M 289.00137604 +/- 90               (J2000 ecliptic)          AutoNEOCP
n   0.49981083 +/- 0.432            Peri.   86.82219 +/- 90
a   1.57252998 +/- 0.907            Node   250.98161 +/- 70
e   0.2259579 +/- 0.278             Incl.   26.31910 +/- 24
P   1.97/720.26d           H 20.8   G  0.15   U 12.2  SR
q 1.21720429 +/- 0.674    Q 1.92785568 +/- 26
From 3 observations 2019 June 7 (31.5 min); mean residual 0".03
Residuals in arcseconds: 
190607 F51  .01+  .02-    190607 F51  .03-  .05+    190607 F51  .01+  .02-    

Ephemerides (geocentric):
Date (UTC) HH   RA              Dec         delta   r     elong  mag " sig PA
---- -- -- --  -------------   -----------  ------ ------ -----  --- ---- ---
2019 06 14 07  14 04 21.713   -19 56 01.90  .62541 1.5115 132.7 22.0 5370  97
2019 06 14 08  14 04 21.951   -19 54 25.47  .62553 1.5114 132.7 22.0 5445  97
2019 06 14 09  14 04 22.195   -19 52 49.10  .62565 1.5112 132.6 22.0 5522  97
2019 06 14 10  14 04 22.445   -19 51 12.79  .62577 1.5111 132.6 22.0 5600  98
2019 06 14 11  14 04 22.700   -19 49 36.53  .62589 1.5110 132.6 22.0 5679  98
2019 06 14 12  14 04 22.960   -19 48 00.33  .62601 1.5108 132.5 22.0 5760  98
2019 06 14 13  14 04 23.227   -19 46 24.19  .62613 1.5107 132.5 22.0 5842  98
2019 06 14 14  14 04 23.499   -19 44 48.11  .62626 1.5106 132.4 22.0 5927  99
2019 06 14 15  14 04 23.776   -19 43 12.09  .62638 1.5104 132.4 22.0 6012  99
2019 06 14 16  14 04 24.059   -19 41 36.12  .62650 1.5103 132.3 22.0 6100  99
2019 06 14 17  14 04 24.348   -19 40 00.21  .62662 1.5102 132.3 22.0 6189  99
2019 06 14 18  14 04 24.642   -19 38 24.36  .62675 1.5100 132.2 22.0 6281  99
2019 06 14 19  14 04 24.942   -19 36 48.57  .62687 1.5099 132.2 22.0 6374 100
2019 06 14 20  14 04 25.247   -19 35 12.83  .62699 1.5098 132.1 22.0 6469 100
2019 06 14 21  14 04 25.558   -19 33 37.16  .62712 1.5096 132.1 22.0 6566 100
2019 06 14 22  14 04 25.874   -19 32 01.54  .62724 1.5095 132.1 22.0 6665 100
2019 06 14 23  14 04 26.196   -19 30 25.98  .62737 1.5094 132.0 22.0 6767 100
2019 06 15 00  14 04 26.523   -19 28 50.48  .62749 1.5092 132.0 22.0 6870 101
2019 06 15 01  14 04 26.856   -19 27 15.04  .62762 1.5091 131.9 22.0 6976 101
2019 06 15 02  14 04 27.195   -19 25 39.66  .62774 1.5090 131.9 22.0 7085 101
2019 06 15 03  14 04 27.539   -19 24 04.34  .62787 1.5088 131.8 22.0 7195 101
2019 06 15 04  14 04 27.888   -19 22 29.07  .62799 1.5087 131.8 22.0 7309 101
2019 06 15 05  14 04 28.244   -19 20 53.87  .62812 1.5086 131.7 22.0 7425 101
2019 06 15 06  14 04 28.604   -19 19 18.72  .62825 1.5085 131.7 22.0 7544 102
2019 06 15 07  14 04 28.970   -19 17 43.64  .62837 1.5083 131.7 22.0 7666 102
2019 06 15 08  14 04 29.342   -19 16 08.61  .62850 1.5082 131.6 22.0 7790 102
2019 06 15 09  14 04 29.719   -19 14 33.64  .62863 1.5081 131.6 22.0 7918 102
2019 06 15 10  14 04 30.102   -19 12 58.74  .62875 1.5079 131.5 22.0 8049 102
2019 06 15 11  14 04 30.490   -19 11 23.89  .62888 1.5078 131.5 22.0 8183 102
2019 06 15 12  14 04 30.883   -19 09 49.10  .62901 1.5077 131.4 22.0 8320 102
2019 06 15 13  14 04 31.282   -19 08 14.37  .62914 1.5075 131.4 22.0 8461 103
2019 06 15 14  14 04 31.687   -19 06 39.70  .62927 1.5074 131.3 22.0 8606 103
2019 06 15 15  14 04 32.097   -19 05 05.10  .62940 1.5073 131.3 22.0 8754 103
2019 06 15 16  14 04 32.513   -19 03 30.55  .62952 1.5071 131.3 22.0 8906 103
2019 06 15 17  14 04 32.934   -19 01 56.06  .62965 1.5070 131.2 22.0 9063 103
2019 06 15 18  14 04 33.360   -19 00 21.64  .62978 1.5069 131.2 22.0 9223 103
2019 06 15 19  14 04 33.792   -18 58 47.27  .62991 1.5067 131.1 22.0 9388 103
2019 06 15 20  14 04 34.229   -18 57 12.96  .63004 1.5066 131.1 22.0 9557 104
2019 06 15 21  14 04 34.672   -18 55 38.72  .63017 1.5065 131.0 22.0 9731 104
2019 06 15 22  14 04 35.120   -18 54 04.54  .63030 1.5063 131.0 22.0 9910 104
2019 06 15 23  14 04 35.574   -18 52 30.41  .63044 1.5062 130.9 22.0 168' 104
2019 06 16 00  14 04 36.033   -18 50 56.35  .63057 1.5061 130.9 22.0 171' 104
2019 06 16 01  14 04 36.498   -18 49 22.35  .63070 1.5059 130.9 22.0 175' 104
2019 06 16 02  14 04 36.968   -18 47 48.41  .63083 1.5058 130.8 22.0 178' 104
2019 06 16 03  14 04 37.443   -18 46 14.53  .63096 1.5057 130.8 22.0 181' 104
2019 06 16 04  14 04 37.924   -18 44 40.71  .63109 1.5055 130.7 22.0 185' 104
2019 06 16 05  14 04 38.410   -18 43 06.96  .63123 1.5054 130.7 22.0 189' 105
2019 06 16 06  14 04 38.902   -18 41 33.26  .63136 1.5053 130.6 22.0 192' 105